[[{"header":{"parameterUnit":"m.s-1","parameterCategory":1,"la1":30.2991,"la2":30.254,"lo1":-89.0895,"lo2":-89.0444,"dy":0.0017,"dx":0.0017,"nx":28,"ny":28,"refTime":"2023-09-05T09:00:00:Z","depth":0,"parameterNumber":2,"parameterNumberName":"U-component_of_WINDS"},"data":[0,0,0,0,0,0,0,0,0,0,0,0,0,0,0,0,0,0,0,0,0,0,0,0,0,0,0,0,0,0,0,0,0,0,0,0,0,0,0,0,0,0,0,0,0,0,0,0,0,0,0,0,0,0,0,0,0,0,-3.3967,-3.3967,0,-3.3949,-3.3949,-3.3949,-3.3818,-3.3814,-3.3811,-3.3808,-3.3793,-3.3795,-3.3798,0,0,0,0,0,0,0,0,0,0,0,0,0,-3.3888,-3.389,-3.3967,-3.3967,-3.3967,-3.395,-3.3949,-3.3949,-3.3818,-3.3814,-3.381,-3.3807,-3.3792,-3.3795,-3.3798,0,0,0,0,0,0,0,0,0,0,0,0,0,-3.3901,-3.389,-3.3967,-3.3899,-3.3893,-3.395,-3.3949,-3.3949,-3.3819,-3.3814,-3.3809,-3.3805,-3.3791,-3.3794,-3.3798,-3.392,0,0,-3.381,-3.3812,0,0,0,0,0,0,0,0,-3.3901,-3.3905,-3.3909,-3.3904,-3.3897,-3.3881,-3.3915,-3.3939,-3.382,-3.3847,-3.3808,-3.3802,-3.3826,-3.3827,-3.3834,-3.3919,-3.3918,-3.3811,-3.3813,-3.3815,-3.3816,0,0,0,0,0,0,0,-3.39,-3.3905,-3.396,-3.391,-3.3902,-3.387,-3.3866,-3.3919,-3.3864,-3.3844,-3.3835,-3.3834,-3.3822,-3.3831,-3.3833,-3.3918,-3.381,-3.3814,-3.3816,-3.3818,-3.4097,-3.4102,0,0,0,0,0,0,-3.3908,-3.3905,-3.3961,-3.396,-3.3887,-3.3875,-3.3871,-3.3891,-3.3863,-3.3854,-3.3839,-3.3828,-3.3826,-3.3828,-3.3832,-3.3968,-3.3815,-3.3818,-3.382,-3.4092,-3.4098,-3.4104,0,0,0,0,0,0,-3.3907,-3.3915,-3.3961,-3.3929,-3.3933,-3.3882,-3.3905,-3.3893,-3.3902,-3.3859,-3.3848,-3.3858,-3.3823,-3.3826,-3.3898,-3.3966,-3.382,-3.3824,-3.4086,-3.4094,-3.4101,-3.4245,0,0,0,0,0,0,-3.3905,-3.3915,-3.3961,-3.3931,-3.3935,-3.4028,-3.3909,-3.3896,-3.3909,-3.3895,-3.3874,-3.3866,-3.3819,-3.3892,-3.3902,-3.3969,-3.3827,-3.408,-3.409,-3.4099,-3.4234,-3.4257,-3.4276,0,0,0,0,0,-3.3903,-3.4003,-3.3964,-3.3971,-3.3991,-3.4032,-3.4034,-3.3978,-3.3915,-3.396,-3.3932,-3.3866,-3.3958,-3.3901,-3.391,-3.398,-3.4075,-3.4087,-3.4098,-3.4224,-3.4252,-3.4276,0,0,0,0,0,0,-3.4043,-3.3998,-3.3954,-3.4047,-3.4044,-3.401,-3.4065,-3.4009,-3.4025,-3.4012,-3.3942,-3.3938,-3.4019,-3.4007,-3.3944,-3.4094,-3.4005,-3.4019,-3.4098,-3.4124,-3.4145,-3.4145,-3.383,0,0,0,0,0,-3.4085,-3.4122,-3.4081,-3.4167,-3.4168,-3.4117,-3.4133,-3.4089,-3.4084,-3.4082,-3.4059,-3.4057,-3.4084,-3.4104,-3.4128,-3.4233,-3.4224,-3.4285,-3.4306,-3.4323,-3.4335,-3.4386,-3.4412,-3.4141,-3.4141,-3.4141,0,0,-3.4172,-3.4152,-3.4179,-3.4195,-3.4187,-3.4226,-3.4117,-3.4164,-3.4191,-3.4089,-3.4154,-3.4138,-3.413,-3.4218,-3.4255,-3.421,-3.4408,-3.4338,-3.4352,-3.4354,-3.4401,-3.4426,-3.4449,-3.4149,-3.4148,-3.4147,0,0,-3.4348,-3.4339,-3.4407,-3.4401,-3.4391,-3.4356,-3.4373,-3.4346,-3.433,-3.4394,-3.4317,-3.435,-3.4401,-3.4397,-3.4402,-3.4576,-3.4515,-3.4586,-3.4695,-3.4746,-3.4767,-3.4785,-3.4844,-3.4866,-3.4598,-3.4599,-3.4599,0,-3.4458,-3.4512,-3.445,-3.45,-3.4508,-3.4417,-3.4485,-3.4483,-3.4482,-3.4489,-3.4438,-3.4497,-3.4486,-3.457,-3.4612,-3.462,-3.4636,-3.4586,-3.4769,-3.4787,-3.4803,-3.4858,-3.4881,-3.4607,-3.4606,-3.4605,-3.4604,0,-3.4645,-3.4685,-3.4742,-3.474,-3.4755,-3.4815,-3.476,-3.4783,-3.4739,-3.4709,-3.4774,-3.4757,-3.4774,-3.4792,-3.475,-3.4869,-3.4841,-3.4781,-3.469,-3.4838,-3.4888,-3.4909,-3.4619,-3.4616,-3.4614,-3.4611,0,0,-3.4909,-3.487,-3.4892,-3.4888,-3.4869,-3.4898,-3.4954,-3.4968,-3.4988,-3.499,-3.5033,-3.5077,-3.502,-3.5026,-3.4983,-3.5028,-3.5162,-3.4962,-3.496,-3.4996,-3.5289,-3.5331,-3.5357,-3.5123,-3.5127,-3.513,-3.5288,0,-3.5076,-3.5166,-3.511,-3.5209,-3.5242,-3.5155,-3.5203,-3.5196,-3.517,-3.5195,-3.5167,-3.5197,-3.5123,-3.5125,-3.5166,-3.5137,-3.5219,-3.5126,-3.5161,-3.5163,-3.5161,-3.5384,-3.5429,-3.5579,-3.5308,-3.5311,-3.5314,0,-3.5282,-3.529,-3.5391,-3.5362,-3.5374,-3.5418,-3.5425,-3.5451,-3.5441,-3.5419,-3.5425,-3.537,-3.5421,-3.5334,-3.5402,-3.534,-3.5351,-3.5339,-3.5344,-3.5342,-3.5245,-3.5385,-3.5626,-3.5647,-3.5345,-3.5342,-3.534,0,-3.5459,-3.5497,-3.556,-3.5561,-3.553,-3.5561,-3.555,-3.5536,-3.5547,-3.5555,-3.5561,-3.5576,-3.5583,-3.5595,-3.5545,-3.5487,-3.5619,-3.5529,-3.56,-3.5602,-3.563,-3.5628,-3.5873,-3.5644,-3.5643,-3.5643,-3.5643,0,-3.5649,-3.5714,-3.5639,-3.5678,-3.5747,-3.5683,-3.5753,-3.5733,-3.572,-3.5754,-3.5681,-3.5714,-3.5648,-3.5674,-3.5636,-3.5696,-3.5701,-3.5684,-3.5672,-3.5688,-3.569,-3.5692,-3.5679,-3.5649,-3.5648,-3.5646,-3.5645,0,-3.5858,-3.5811,-3.5874,-3.5839,-3.5831,-3.5883,-3.5853,-3.5887,-3.5856,-3.5899,-3.5906,-3.5857,-3.5884,-3.5836,-3.5858,-3.5832,-3.5915,-3.589,-3.5918,-3.5909,-3.5982,-3.5974,-3.6234,-3.6263,-3.6019,-3.6022,-3.6024,0,-3.598,-3.6027,-3.5996,-3.6012,-3.6004,-3.6032,-3.6042,-3.5982,-3.5995,-3.5987,-3.6022,-3.6042,-3.6055,-3.6102,-3.6069,-3.6084,-3.6056,-3.6146,-3.6058,-3.6071,-3.6053,-3.6049,-3.6052,-3.6163,-3.6166,-3.6168,-3.617,0,-3.6201,-3.6175,-3.6192,-3.6201,-3.6215,-3.6219,-3.6219,-3.6237,-3.6172,-3.6191,-3.6217,-3.6226,-3.6247,-3.6267,-3.6275,-3.6263,-3.6206,-3.6199,-3.6215,-3.623,-3.6243,-3.6233,-3.5963,-3.6192,-3.619,-3.6189,-3.6187,-3.6186,-3.6368,-3.6403,-3.6386,-3.6407,-3.6399,-3.64,-3.6429,-3.6401,-3.6421,-3.6431,-3.6395,-3.6428,-3.6415,-3.6418,-3.6413,-3.6438,-3.6398,-3.6423,-3.6429,-3.6435,-3.6445,-3.6242,-3.644,-3.6439,-3.6439,-3.6438,-3.6437,0,-3.6581,-3.6565,-3.6585,-3.6584,-3.6601,-3.6545,-3.6541,-3.6558,-3.6587,-3.658,-3.6593,-3.6621,-3.664,-3.6608,-3.6622,-3.6648,-3.6622,-3.6653,-3.6649,-3.6646,-3.6482,-3.6464,-3.6674,-3.6674,-3.6674,-3.6674,-3.6674,-3.6674,-3.6694,-3.675,-3.6722,-3.6773,-3.6757,-3.6787,-3.6789,-3.6789,-3.6782,-3.6816,-3.683,-3.6809,-3.6791,-3.6803,-3.6817,-3.6807,-3.6814,-3.6854,-3.6835,-3.6682,-3.6658,-3.6636,-3.6619,-3.6857,-3.6858,-3.6996,-3.6998,-3.6999]},{"header":{"parameterUnit":"m.s-1","parameterCategory":1,"la1":30.2991,"la2":30.254,"lo1":-89.0895,"lo2":-89.0444,"dy":0.0017,"dx":0.0017,"nx":28,"ny":28,"refTime":"2023-09-05T09:00:00:Z","depth":0,"parameterNumber":3,"parameterNumberName":"V-component_of_WINDS"},"data":[0,0,0,0,0,0,0,0,0,0,0,0,0,0,0,0,0,0,0,0,0,0,0,0,0,0,0,0,0,0,0,0,0,0,0,0,0,0,0,0,0,0,0,0,0,0,0,0,0,0,0,0,0,0,0,0,0,0,0.2404,0.2405,0,0.2521,0.2522,0.2524,0.2493,0.2491,0.2488,0.2486,0.2609,0.2614,0.262,0,0,0,0,0,0,0,0,0,0,0,0,0,0.2159,0.2164,0.2404,0.2405,0.2407,0.2521,0.2522,0.2524,0.2494,0.2491,0.2488,0.2485,0.2607,0.2614,0.262,0,0,0,0,0,0,0,0,0,0,0,0,0,0.227,0.2165,0.2404,0.2405,0.2407,0.252,0.2522,0.2524,0.2494,0.2491,0.2487,0.2484,0.2605,0.2613,0.2621,0.2741,0,0,0.2646,0.2649,0,0,0,0,0,0,0,0,0.2263,0.2279,0.2404,0.2405,0.2407,0.2489,0.2481,0.2597,0.2495,0.2461,0.2486,0.2482,0.2572,0.2583,0.2612,0.2747,0.2752,0.2647,0.2651,0.2655,0.2657,0,0,0,0,0,0,0,0.2256,0.2274,0.245,0.2405,0.2408,0.2402,0.2414,0.2503,0.2535,0.2464,0.2462,0.2476,0.2572,0.2604,0.2615,0.2754,0.2646,0.2654,0.2659,0.2662,0.2997,0.3001,0,0,0,0,0,0,0.2246,0.2267,0.2446,0.2454,0.2325,0.2409,0.2422,0.2466,0.2534,0.254,0.2479,0.2474,0.2592,0.2605,0.2619,0.2767,0.2655,0.2663,0.2667,0.2993,0.2998,0.3003,0,0,0,0,0,0,0.2241,0.2262,0.2442,0.236,0.2382,0.2417,0.2466,0.247,0.2502,0.2545,0.2551,0.2506,0.259,0.2608,0.2712,0.2771,0.2666,0.2674,0.2989,0.2995,0.3001,0.3062,0,0,0,0,0,0,0.2234,0.2261,0.2305,0.2361,0.2387,0.2531,0.247,0.2475,0.2516,0.2511,0.2572,0.2578,0.2589,0.27,0.272,0.278,0.268,0.2984,0.2991,0.2999,0.3055,0.3069,0.3082,0,0,0,0,0,0.2226,0.2317,0.2308,0.2329,0.2443,0.2534,0.2549,0.2558,0.2521,0.2567,0.2595,0.2576,0.2761,0.2711,0.2733,0.2797,0.298,0.2989,0.2998,0.3049,0.3067,0.3082,0,0,0,0,0,0,0.2267,0.2325,0.2314,0.2427,0.2476,0.2529,0.2587,0.2576,0.2637,0.263,0.264,0.2654,0.2761,0.2789,0.2732,0.2919,0.2865,0.2879,0.2896,0.2914,0.2927,0.2918,0.2687,0,0,0,0,0,0.229,0.2358,0.2405,0.25,0.2525,0.2552,0.2592,0.2595,0.2647,0.2667,0.2703,0.2755,0.2825,0.287,0.2937,0.3059,0.3074,0.3114,0.3127,0.3138,0.3151,0.3221,0.3241,0.3032,0.3032,0.3032,0,0,0.2336,0.2376,0.2418,0.2509,0.2547,0.262,0.257,0.2647,0.2702,0.2679,0.278,0.2809,0.2867,0.2982,0.3034,0.3009,0.3212,0.315,0.3158,0.3165,0.3232,0.3252,0.327,0.3039,0.3038,0.3037,0,0,0.2459,0.2495,0.2579,0.2619,0.2679,0.2697,0.2717,0.2773,0.2791,0.2892,0.2878,0.2944,0.3063,0.3107,0.3145,0.3288,0.3275,0.331,0.3381,0.3449,0.3466,0.348,0.3534,0.3553,0.3322,0.3322,0.3322,0,0.2509,0.2616,0.2624,0.2705,0.2746,0.273,0.2818,0.2856,0.2935,0.2965,0.2935,0.3087,0.3125,0.3252,0.3287,0.3317,0.3343,0.3303,0.3462,0.3477,0.3491,0.3543,0.3563,0.3326,0.3326,0.3325,0.3325,0,0.2678,0.2753,0.2814,0.2891,0.2939,0.3023,0.3046,0.3094,0.3094,0.3117,0.3222,0.3268,0.3345,0.3375,0.3375,0.3503,0.3486,0.3459,0.3406,0.3515,0.3564,0.3583,0.3332,0.333,0.3329,0.3328,0,0,0.2827,0.291,0.2932,0.2969,0.3035,0.3094,0.3178,0.3253,0.3297,0.3352,0.3425,0.3528,0.3505,0.3548,0.3554,0.3614,0.3729,0.358,0.3582,0.3608,0.3876,0.3897,0.3919,0.372,0.3724,0.3727,0.3872,0,0.2957,0.3105,0.3116,0.325,0.3322,0.3309,0.3383,0.3433,0.3457,0.3523,0.3549,0.3623,0.3586,0.3612,0.3671,0.3702,0.3783,0.3692,0.379,0.3794,0.3777,0.3944,0.3966,0.41,0.3891,0.3894,0.3896,0,0.3127,0.3189,0.333,0.339,0.342,0.3487,0.3559,0.3621,0.3679,0.3692,0.3742,0.3741,0.383,0.3774,0.3899,0.3837,0.3878,0.39,0.3906,0.3916,0.3852,0.3961,0.4143,0.4164,0.3926,0.3924,0.3921,0,0.3226,0.3344,0.3445,0.3476,0.3547,0.3595,0.3627,0.3681,0.3727,0.3791,0.3822,0.3895,0.3936,0.3994,0.4013,0.397,0.4139,0.4083,0.4155,0.4155,0.4192,0.4189,0.4385,0.4216,0.4216,0.4215,0.4215,0,0.337,0.3457,0.349,0.3552,0.3652,0.3665,0.3763,0.3793,0.3842,0.3912,0.3906,0.3971,0.3992,0.4063,0.4079,0.4182,0.42,0.4215,0.4219,0.4217,0.4215,0.4245,0.4236,0.4221,0.4219,0.4218,0.4217,0,0.3496,0.3521,0.3631,0.369,0.3708,0.3778,0.383,0.3892,0.3916,0.4004,0.4026,0.4064,0.4147,0.4172,0.4271,0.4282,0.4404,0.4398,0.4385,0.4385,0.4457,0.4451,0.4679,0.4711,0.452,0.4521,0.4523,0,0.3586,0.3654,0.3722,0.3768,0.3802,0.3876,0.3924,0.3942,0.3992,0.4065,0.4119,0.4201,0.4267,0.44,0.4438,0.4515,0.4512,0.4588,0.4524,0.4521,0.4517,0.4513,0.4521,0.46,0.4602,0.4603,0.4604,0,0.3746,0.3756,0.3824,0.3899,0.3956,0.4016,0.4073,0.4111,0.4138,0.4195,0.428,0.4332,0.4435,0.4517,0.4596,0.4632,0.4624,0.4624,0.4646,0.4645,0.4635,0.4644,0.4419,0.4619,0.4618,0.4616,0.4616,0.4615,0.3858,0.3919,0.3978,0.4056,0.4101,0.4156,0.4217,0.425,0.4321,0.4406,0.4413,0.4505,0.4566,0.4671,0.4711,0.4785,0.4764,0.4793,0.4801,0.4809,0.4816,0.4622,0.4799,0.4799,0.4799,0.4798,0.4798,0,0.4019,0.4057,0.4129,0.421,0.4273,0.426,0.4324,0.4377,0.4458,0.4515,0.4581,0.4681,0.4762,0.4808,0.4889,0.4941,0.4939,0.4962,0.4959,0.4968,0.4829,0.4804,0.4961,0.4961,0.4961,0.4961,0.4961,0.4961,0.411,0.4214,0.4232,0.4359,0.4397,0.4488,0.4526,0.4578,0.4623,0.4735,0.4802,0.4831,0.4885,0.4971,0.5046,0.5058,0.5089,0.5114,0.5124,0.4994,0.4977,0.4961,0.4937,0.512,0.5121,0.5256,0.5257,0.5258]}]]